SL-14 DEB, 45321

Orbit data source: Space-Track

SL-14 DEB, 45321 is space debris in LEO originally from a launch on Thu, 15 Aug 1991 UTC launched from the Plesetsk Missile And Space Complex (PKMTR). Debris objects in space refer to the collection of defunct objects orbiting the Earth. Examples of debris include non-operational satellites, rocket bodies, and fragments generated from explosions, collisions, or faulty payload assembly.

Loading next visibility...
Identifier
45321, 1991-056BK
Orbit
LEO
Country
Flag of CISCIS
Related business
Manufacturer
Unknown
Mission
Spacecraft
Bus & Motor
Unknown
Mass
Unknown
Launch date (UTC)
1991-08-15 (35 years ago)
Launch vehicle
Unknown
Launch site
Plesetsk Missile And Space Complex (PKMTR)
Object type
Payload
Rocket body
Debris
Shape & HBR
Unknown shape, 0.1 m
Radar Cross Section
Small (<0.1 m²)

Expand to show TLE details & history
Last TLE update: 4 days ago

TLE from 4 days ago
0 SL-14 DEB
1 45321U 91056BK  26203.45008889  .00000074  00000-0  15283-3 0  9994
2 45321  82.5619 109.4523 0023954   8.4530 351.6992 13.19501191308024
Epoch: 2026-07-22T10:48Z
TLE epoch observation values (Epoch: 2026-07-22T10:48:07.680Z)
Latitude
-0.00004°
Longitude
7.21504°
Altitude
1,171.504 km
Speed
7.276 km/s
True Right ascension
07h 17m 48s
True Declination
0° 00' 00"
Sunlit
Object was in daylight at epoch
Visualization orbit readout
Latitude
Unknown
Longitude
Unknown
Altitude
Unknown
Speed
Unknown
Apparent Right ascension
Unknown
Apparent Declination
Unknown
Sunlit
N/A
Visualization observer readout
Local Sidereal Time
17:02:08
Azimuth
Unknown
Elevation
Unknown
Doppler factor
Unknown
Orbital elements
Apogee altitude
1,201.981 km
Perigee altitude
1,165.753 km
Semi-major axis
7,562.004 km
Eccentricity
0.0024
Inclination
82.5619°
RAAN
109.4523°
Arg. of periapsis
8.453°
True anomaly
351.65945°
Mean anomaly
351.6992°
Eccentric anomaly
351.67934°
Mean motion
3.30056 °/min
Orbital period
109.07 mins
BSTAR
0.00015283
Loading maneuver chart data...
Computing Atmospheric mass density...
Loading historical data...
Loading historical data...
Loading historical data...
Loading historical data...
Loading historical data...
Loading historical data...
Loading historical data...

Documentation

Showing up to 5 results
|